Location: Recife
(8.0585°S, 34.8848°W)
Time: 11:33:02
(UTC-03:00)

Vanguard 2 Rocket - Pass Details

Date: 22 April 2026
Orbit: 553 x 3286 km, 32.9° (Epoch: 8 May)

Event Time Altitude Azimuth Distance (km) Brightness Sun altitude
Rises 04:04:14 0° 266° (W) 2,984 - -19.7°
Reaches altitude 10° 04:06:41 10° 250° (WSW) 2,269 - -19.1°
Exits shadow 04:09:22 21° 218° (SW) 1,864 8.1 -18.4°
Maximum altitude 04:10:52 23° 197° (SSW) 1,903 8.3 -18.0°
Drops below altitude 10° 04:16:50 10° 147° (SSE) 3,354 10.1 -16.6°
Sets 04:21:28 0° 134° (SE) 4,868 11.1 -15.5°
